This is the latest recevied weather packets stored in our database for station/object W4BOD. If no packets are shown the sender has not sent any weather packets the latest 10 day(s).
| Time | Temp. | Humidity | Pressure | Rain* | Wind** | Luminosity | Snow |
|---|---|---|---|---|---|---|---|
| 1777222560 | 27.22° C | 58% | 1014.1 hPa | 0 mm | - | 952 W/m² | - |
| 1777222257 | 26.67° C | 58% | 1014 hPa | 0 mm | - | 920 W/m² | - |
| 1777221956 | 26.67° C | 57% | 1014.2 hPa | 0 mm | - | 913 W/m² | - |
| 1777221650 | 26.11° C | 61% | 1014.2 hPa | 0 mm | - | 906 W/m² | - |
| 1777221347 | 26.67° C | 60% | 1014.1 hPa | 0 mm | - | 898 W/m² | - |
| 1777221045 | 26.11° C | 61% | 1014.3 hPa | 0 mm | - | 889 W/m² | - |
| 1777220745 | 25.56° C | 63% | 1014.3 hPa | 0 mm | - | 885 W/m² | - |
| 1777220441 | 25° C | 64% | 1014.3 hPa | 0 mm | - | 879 W/m² | - |
| 1777220141 | 25° C | 65% | 1014.4 hPa | 0 mm | - | 872 W/m² | - |
| 1777219838 | 25° C | 63% | 1014.4 hPa | 0 mm | - | 863 W/m² | - |
| 1777219535 | 25° C | 66% | 1014.3 hPa | 0 mm | - | 855 W/m² | - |
| 1777219232 | 24.44° C | 67% | 1014.4 hPa | 0 mm | - | 846 W/m² | - |
| 1777218927 | 25.56° C | 68% | 1014.4 hPa | 0 mm | - | 834 W/m² | - |
| 1777218624 | 25° C | 68% | 1014.6 hPa | 0 mm | - | 827 W/m² | - |
| 1777218318 | 24.44° C | 68% | 1014.5 hPa | 0 mm | - | 820 W/m² | - |
| 1777218016 | 23.89° C | 68% | 1014.7 hPa | 0 mm | - | 808 W/m² | - |
| 1777217711 | 24.44° C | 67% | 1014.5 hPa | 0 mm | - | 798 W/m² | - |
| 1777217407 | 23.33° C | 71% | 1014.6 hPa | 0 mm | - | 787 W/m² | - |
| 1777217103 | 23.33° C | 71% | 1014.7 hPa | 0 mm | - | 777 W/m² | - |
| 1777216800 | 22.78° C | 72% | 1014.6 hPa | 0 mm | - | 764 W/m² | - |
| 1777216496 | 22.78° C | 71% | 1014.7 hPa | 0 mm | - | 752 W/m² | - |
| 1777216191 | 22.78° C | 71% | 1014.6 hPa | 0 mm | - | 738 W/m² | - |
| 1777215884 | 22.78° C | 70% | 1014.5 hPa | 0 mm | - | 729 W/m² | - |
| 1777215581 | 22.78° C | 72% | 1014.7 hPa | 0 mm | - | 716 W/m² | - |
| 1777215277 | 22.22° C | 74% | 1014.5 hPa | 0 mm | - | 702 W/m² | - |
* Rain latest hour (hover to see other rain measurements)
** Current wind speed in m/s (hover to see current wind gust speed)